Temp_Advection
nan nan nan nan nan nan nan nan nan nan nan nan nan nan nan nan nan nan nan nan nan nan nan nan nan nan nan nan nan nan nan nan nan nan nan nan nan nan nan nan nan nan nan nan nan
nan -0 -0 -0 -0 -0 -0 -0 -0 -0 -0 -0 0 0 0 0 -0 -1 -0 0 0 -0 -0 -0 -0 -0 -0 0 -0 -0 -1 -0 -1 -1 -1 -0 0 -1 -1 -1 -0 0 0 0 nan
nan -0 -0 -0 -0 -0 -0 -0 -0 -0 -0 -0 -0 -0 -0 0 0 -0 0 0 -0 -0 -0 -0 -0 -0 -0 -0 -0 -0 -0 -1 -0 -0 -0 -0 -0 -1 -1 -1 -1 -0 0 0 nan
nan -0 -0 -0 -0 -0 -0 -0 -0 -0 -0 -0 -0 -0 -0 0 -0 -0 -0 -0 -0 -0 -0 -0 -0 -0 -0 0 -0 -0 -0 -0 -0 -0 -0 -0 -0 -0 -1 -1 -1 -0 0 0 nan
nan -0 -0 -0 -0 -0 -0 -0 -0 -0 -0 -0 -0 -0 0 -0 -1 -0 -0 -0 -0 -0 -0 -0 -0 -0 -0 -0 -0 -0 -0 -0 -0 0 -0 -0 -0 -0 -0 -0 -0 -0 -0 0 nan
nan -0 -0 -0 -0 -0 -0 -0 -0 -0 -0 -0 -0 0 -0 -1 -0 0 -0 -0 -0 -0 -0 -0 -0 -0 -0 -0 -0 -0 -0 -0 -0 -0 0 -0 -0 -0 -0 -0 -0 -0 -1 -1 nan
nan -0 -0 -0 -0 -0 -0 -0 -0 -0 -0 -0 -0 -0 -1 -1 -0 -0 0 -0 -0 -0 -0 -0 -0 -0 -0 -0 0 0 -0 -1 -0 0 0 0 -0 -1 -1 -0 0 0 -0 -1 nan
nan -0 -0 -0 -0 -0 -0 -0 -0 -0 -0 -0 -0 0 -0 -0 0 -0 -0 -0 0 0 -0 -0 -0 -0 -0 -0 -0 -0 0 -0 0 0 0 0 -1 -1 0 0 0 0 -0 -0 nan
nan -0 -0 -0 -0 -0 -0 -0 -0 -0 -0 -0 0 0 -0 0 -0 -0 -0 -0 -0 0 0 0 -0 -0 -0 -0 -0 0 -0 -0 -1 -0 0 0 -1 -1 0 -0 0 -0 -0 -0 nan
nan -0 -0 -0 -0 -0 -0 -0 -0 0 0 -0 -0 0 -1 -0 -0 0 -0 0 0 0 -0 0 -0 -0 -0 0 0 -0 -1 -1 -1 -1 0 0 -1 -1 0 0 0 0 0 -0 nan
nan -0 -0 -0 -0 -0 -0 -0 -0 -0 -1 -0 -0 -0 -0 -0 0 0 -0 -0 0 -0 0 0 -0 -0 -0 -0 0 1 0 -1 -2 -1 0 -0 -0 -1 0 0 0 0 0 0 nan
nan -0 -0 -0 -0 -1 -1 -1 -0 0 0 -0 0 -0 -0 -0 -0 -0 -1 -0 -0 -0 -0 0 0 -0 -0 0 0 1 0 -1 -1 -0 0 -0 -1 -1 -0 -0 0 0 0 -0 nan
nan -0 -0 -0 -0 -1 -1 -1 -0 0 -0 -0 0 -0 0 0 -0 -0 -1 -1 -0 -0 -0 -0 -0 -0 -0 -0 0 -0 -0 -0 -0 -2 -1 -0 -0 -0 -0 -2 -2 -1 0 -0 nan
nan -0 -0 -0 -0 -1 -0 -0 0 0 -0 0 0 -0 0 0 0 0 -0 -0 -0 -0 -0 -0 -0 -0 -1 -0 -0 -1 -0 0 1 -0 -0 -0 -0 -0 -1 -1 -2 -3 -3 1 nan
nan -0 -0 -0 -0 0 0 -0 0 0 -0 -0 -0 0 0 0 -0 0 -0 0 -0 -1 -0 -0 0 -0 -0 -0 0 -0 -1 1 1 0 -0 0 0 -0 -1 -0 -1 -1 -2 -1 nan
nan -0 -0 -0 -0 1 0 -0 0 -0 -0 -0 -0 0 0 -0 -0 -0 -0 -1 -0 -1 -0 -0 0 0 0 -1 -0 0 -0 -0 0 0 -0 0 0 -1 -1 -1 -0 -1 -1 -0 nan
nan -0 -0 -0 1 1 0 0 0 0 -0 -0 -0 -0 -0 -0 -0 -0 -0 -0 0 -1 -1 -2 -0 0 1 0 -1 -1 -1 -0 -0 0 0 0 -0 -1 -0 -1 -1 -1 -1 0 nan
nan -0 -0 -0 0 1 0 -0 -0 -0 -0 -0 0 -0 0 -0 -0 -0 -0 0 -0 -0 -1 -1 -0 -0 0 0 0 -0 -0 -0 -1 -0 -0 -0 -0 -0 -0 -0 -0 -1 -0 -0 nan
nan -0 -0 -0 0 0 0 -0 -0 -0 -0 -0 -0 -0 -0 -0 -0 -0 -0 -0 -0 -0 -0 -0 -1 -0 -0 0 0 0 0 0 -0 -0 0 -0 -0 -0 0 -0 -0 -0 -0 -0 nan
nan -0 -0 -0 0 -0 -0 -0 -0 -0 -0 -0 -0 -0 -0 -0 -0 -1 -0 -0 -0 -0 0 -0 -1 -1 -0 -0 -0 -0 -0 0 -0 -0 -0 -0 -0 -0 -0 -0 -0 -0 -0 -0 nan
nan 0 -0 -0 -0 -0 -0 -0 -0 -0 -0 -0 -0 -0 0 0 -0 -0 -0 -0 -0 0 0 0 -0 -1 -0 -0 -0 -0 -0 -0 -0 -0 -0 -0 -0 -0 -0 -0 -0 -0 -0 0 nan
nan -0 0 -0 -0 -0 -0 -0 0 -0 -0 -0 -0 -0 0 0 0 -0 -0 0 -0 -0 -0 -0 0 -1 -1 -0 0 -0 0 -0 -0 -0 -0 0 -0 1 -0 0 -0 -0 -0 -0 nan
nan -0 -0 -0 -0 -0 0 -0 -0 0 -0 0 -0 0 0 0 0 -0 0 0 0 -0 -0 -0 0 -1 0 0 0 -0 -0 -0 0 -0 -0 -0 -0 -0 -0 -0 -0 -0 -0 0 nan
nan 0 -0 -0 -0 0 0 0 -0 0 0 0 0 0 0 -0 0 -0 -0 0 0 0 -0 -0 -0 -0 -0 -0 -0 0 -1 -0 -0 -0 -0 -0 -0 -0 -1 -0 -0 -0 -0 0 nan
nan 0 0 0 0 0 -0 0 -0 0 0 -0 0 -0 0 0 -0 -0 -0 -0 0 -0 -0 -0 -0 -0 -0 -0 -0 0 0 -0 -0 -0 0 0 0 -0 -0 -0 0 0 0 0 nan
nan 0 0 0 0 0 -0 -0 -0 -0 -0 0 -0 -0 0 -0 -0 0 -0 -0 0 -0 0 -0 -0 -0 -0 -0 0 0 -0 0 0 -0 -0 0 0 0 0 0 -1 -0 0 -0 nan
nan nan nan nan nan nan nan nan nan nan nan nan nan nan nan nan nan nan nan nan nan nan nan nan nan nan nan nan nan nan nan nan nan nan nan nan nan nan nan nan nan nan nan nan nan
Wind_Speed
19 19 19 19 18 19 20 21 21 20 18 13 11 7 7 16 17 11 15 12 16 17 18 15 12 11 4 2 3 4 6 11 14 16 13 2 6 8 9 15 13 8 9 8 12
20 19 19 20 19 20 21 22 19 16 15 13 10 5 5 10 6 19 13 14 16 17 16 17 17 14 3 3 2 6 9 10 7 9 9 13 8 16 14 15 11 12 10 7 13
22 22 20 20 20 20 21 21 19 15 14 12 10 5 3 3 2 12 17 17 17 15 13 12 12 9 5 3 1 4 9 12 12 12 14 17 21 21 21 19 21 18 11 15 19
23 24 23 21 20 20 23 22 18 14 12 11 9 11 10 4 3 12 16 17 19 17 12 11 11 9 5 4 2 8 11 11 13 14 16 17 21 21 24 27 25 27 22 23 20
24 24 23 21 20 21 23 20 14 12 11 10 7 6 8 6 8 13 17 19 17 15 10 9 9 8 5 9 10 12 13 11 13 16 18 21 23 23 27 25 27 30 33 28 25
24 26 25 21 20 20 21 17 12 10 9 10 13 12 5 8 8 14 19 22 17 13 8 7 6 8 10 8 8 11 14 19 22 24 22 20 26 24 26 25 26 27 30 34 32
26 26 25 21 19 21 21 14 9 8 5 2 6 3 14 8 9 16 19 20 13 9 7 5 7 6 6 9 6 12 16 17 20 15 12 14 19 23 31 23 23 27 30 30 34
27 27 26 22 19 21 20 11 9 5 7 2 3 6 5 9 11 19 23 19 11 9 4 4 3 6 6 9 13 14 14 9 2 8 14 7 22 18 17 17 21 24 26 28 31
28 27 26 24 19 21 18 7 12 4 7 10 6 2 4 8 19 16 23 21 10 7 3 2 1 3 4 7 10 6 11 19 20 17 11 13 22 17 21 24 24 25 25 27 30
30 29 25 24 19 22 17 3 7 12 4 6 11 3 10 17 12 20 24 14 7 7 5 3 3 5 5 6 11 14 19 20 21 17 16 18 27 27 30 28 30 33 32 30 29
28 28 27 24 18 23 18 4 3 1 19 9 7 5 10 17 7 21 29 12 9 5 7 3 6 6 10 10 12 15 16 19 24 19 17 19 24 25 26 28 27 28 29 29 28
25 28 30 24 16 23 21 8 4 7 7 8 5 9 9 15 11 24 30 12 9 9 11 5 1 6 10 10 12 14 17 19 19 13 18 20 25 25 20 22 27 30 24 27 27
25 27 29 24 11 24 22 14 4 9 1 4 6 8 9 10 9 21 25 14 9 11 10 6 7 9 12 13 13 16 17 17 19 20 22 15 15 5 8 18 19 18 22 23 25
25 29 29 19 10 20 15 16 3 6 3 7 7 7 9 7 2 15 20 7 7 9 10 4 7 10 14 12 14 13 10 17 20 13 8 4 6 4 12 10 19 27 20 19 18
24 28 29 19 15 14 17 12 5 3 1 7 4 7 9 10 11 20 15 7 7 13 5 8 9 13 11 6 14 10 21 21 19 14 11 2 5 7 13 14 19 14 13 11 4
21 24 28 20 19 22 17 6 5 1 4 3 4 10 9 10 6 15 13 18 2 7 7 9 10 4 4 15 16 13 19 22 6 4 4 7 4 11 11 18 15 16 21 16 15
17 21 23 17 21 22 17 2 1 4 2 7 5 9 8 10 6 12 5 12 11 10 12 15 2 5 9 16 10 19 16 5 4 2 4 6 4 8 12 16 13 16 21 22 20
17 18 21 14 22 20 10 2 6 2 3 3 5 9 5 10 5 12 9 9 13 12 9 8 3 11 14 10 9 14 8 6 7 8 10 6 7 5 7 16 24 24 22 28 24
23 18 16 14 19 15 4 5 3 2 3 6 6 4 2 4 6 9 5 7 8 11 7 7 5 12 10 11 8 9 11 10 6 11 5 3 4 6 16 17 13 21 28 27 27
12 14 8 14 17 9 3 3 2 2 2 2 4 4 5 9 8 8 7 3 6 7 4 5 8 8 13 8 3 8 10 4 4 6 7 4 4 8 18 18 15 17 23 27 27
12 6 4 15 11 4 3 3 2 2 1 2 2 3 4 3 3 4 4 1 4 8 3 6 2 8 11 5 9 7 7 5 4 4 4 6 4 7 10 11 12 13 19 21 22
6 3 9 9 2 3 2 2 2 5 2 2 3 2 2 2 3 3 3 3 2 10 5 3 4 6 6 8 2 3 10 7 4 7 5 4 4 9 6 8 11 13 15 17 17
4 4 5 7 2 1 2 2 2 4 3 2 3 4 1 2 3 4 3 1 2 5 5 6 1 7 1 3 3 4 9 13 10 4 4 5 4 11 13 13 14 13 13 13 13
2 2 1 3 3 1 2 2 3 3 3 3 3 4 3 4 5 4 5 2 4 2 3 3 3 6 6 9 11 10 16 13 8 4 7 4 9 13 12 9 12 13 10 10 11
4 3 2 2 2 3 0 3 4 3 5 6 3 9 5 2 2 4 4 7 1 0 4 3 4 5 15 19 16 14 12 9 6 6 4 6 7 9 10 8 8 9 9 8 10
3 3 1 2 2 3 3 6 7 4 7 5 6 2 8 5 3 3 2 3 4 1 1 1 3 9 5 2 3 10 14 8 6 6 7 5 3 5 8 7 8 5 8 7 8
10 10 4 4 4 3 4 4 7 8 8 5 8 4 7 12 12 11 10 11 11 4 2 2 5 6 4 4 7 4 1 2 4 4 4 4 5 7 7 10 9 6 6 8 8
Wind_Direction
25 20 15 11 9 4 2 358 353 351 355 6 5 9 73 77 58 53 39 11 356 354 9 354 357 352 333 274 265 259 251 257 263 272 278 189 331 287 309 287 274 278 288 334 341
23 17 12 7 4 1 358 355 352 350 354 353 351 324 152 105 60 40 15 356 352 1 358 1 357 355 319 295 246 249 250 277 15 336 312 306 297 299 304 299 262 282 241 308 334
22 16 8 3 1 358 355 354 354 359 4 4 7 14 188 113 61 10 353 358 353 354 346 342 346 347 314 320 311 296 265 308 318 301 296 292 289 278 281 270 266 272 284 305 315
20 14 9 2 359 357 356 356 359 5 9 17 42 60 87 24 16 347 354 355 353 345 337 336 341 344 311 313 329 280 265 288 300 295 291 286 291 285 275 271 273 275 279 287 294
14 12 8 2 358 358 356 356 3 9 21 34 56 46 60 53 22 350 349 342 336 326 324 326 326 331 306 314 302 267 286 302 297 289 285 289 278 275 270 271 262 260 265 266 271
7 6 4 2 357 357 355 356 5 17 38 72 66 47 29 73 357 352 345 341 333 332 315 293 293 307 289 285 281 316 302 292 289 283 282 280 278 277 269 264 264 262 263 262 259
5 1 0 1 359 358 355 358 5 19 26 33 28 75 50 43 353 346 347 346 338 339 324 303 272 254 325 283 300 284 288 289 278 290 261 291 274 257 268 273 271 269 263 262 257
6 1 359 0 3 1 358 5 9 6 20 359 33 49 67 12 3 352 348 353 341 335 322 315 257 262 268 294 281 271 268 278 195 246 282 254 270 284 299 295 277 267 264 263 259
6 360 357 359 4 4 3 16 20 28 82 60 41 64 50 341 343 351 346 336 339 346 355 0 246 283 257 280 298 197 302 304 303 308 261 234 280 287 289 287 276 269 268 265 258
8 3 360 358 359 7 8 18 33 32 87 39 32 115 24 346 340 359 346 337 336 337 275 315 265 259 244 296 311 313 307 305 301 306 291 272 271 281 285 280 273 269 263 260 259
7 4 1 358 358 7 19 7 350 73 51 61 51 41 336 344 356 354 352 344 338 267 348 347 272 2 344 331 314 303 298 293 294 299 286 283 283 283 287 285 271 262 260 255 253
6 5 1 356 356 4 22 63 66 148 79 48 43 19 344 347 342 354 356 16 346 340 341 232 284 1 324 311 310 304 289 285 295 322 319 295 287 287 295 294 266 263 257 250 248
2 0 359 354 356 4 21 32 88 141 245 37 32 358 352 357 10 357 360 341 339 337 350 304 348 333 323 315 323 312 295 299 309 319 296 297 289 13 343 9 349 281 248 253 242
360 359 359 6 15 1 354 8 86 145 203 15 2 9 345 331 214 3 5 1 342 330 333 297 326 320 323 315 341 312 319 317 308 316 308 18 298 39 358 358 354 341 297 230 243
356 359 360 10 360 355 350 1 122 102 194 11 5 352 345 35 338 3 5 10 346 330 311 4 332 330 317 316 325 280 306 301 289 284 283 25 260 22 12 348 344 334 354 36 152
345 354 358 359 358 350 352 25 111 223 35 33 355 353 358 20 17 352 13 15 311 322 292 317 289 291 251 301 309 325 309 305 281 253 233 345 313 46 11 340 338 347 21 37 90
344 347 349 347 350 346 348 59 22 56 119 0 339 339 331 354 356 4 48 49 36 347 357 327 327 347 345 333 335 351 339 321 317 310 4 346 15 55 0 3 354 358 15 42 71
332 342 341 341 349 348 4 261 59 41 1 7 327 316 5 3 14 359 357 23 33 7 305 344 319 14 343 348 309 311 351 338 316 342 326 59 11 61 24 17 9 6 30 43 63
319 323 329 341 348 350 332 45 14 42 346 329 299 301 36 33 342 348 56 17 29 19 359 340 288 337 339 329 344 339 351 309 272 269 258 9 81 132 6 13 18 16 27 31 47
338 330 313 342 347 10 41 97 47 62 354 317 346 360 328 354 344 3 2 25 1 44 0 355 292 310 332 312 359 330 358 338 318 329 324 48 48 7 350 353 10 21 17 28 51
336 331 317 337 351 32 72 58 102 110 45 328 322 304 313 328 340 317 325 226 15 352 319 310 251 305 304 27 353 357 12 352 276 306 321 325 56 16 353 359 3 17 24 27 44
332 306 315 346 343 34 52 124 117 159 180 235 275 272 278 319 269 274 284 268 355 339 328 355 299 288 292 339 28 342 19 358 336 341 322 271 45 5 28 8 24 25 23 36 38
307 277 322 355 79 77 146 161 203 181 213 205 243 234 242 260 285 236 293 254 271 338 2 347 169 303 184 171 180 4 340 347 326 239 7 329 26 31 38 17 22 18 16 34 45
250 284 333 52 89 165 191 203 196 201 228 223 258 234 247 262 220 292 288 315 324 299 4 304 266 261 282 308 310 300 316 332 332 300 335 31 318 7 23 28 4 10 22 29 46
210 247 203 246 179 133 59 208 185 203 216 212 238 228 196 257 267 239 285 301 224 23 338 341 270 281 279 284 282 279 290 305 320 341 327 355 339 352 9 24 357 347 15 32 36
215 180 182 158 135 143 160 217 206 164 179 211 224 243 207 222 247 297 334 275 288 120 325 312 277 322 291 293 277 294 291 286 278 294 279 307 348 353 354 22 86 21 12 28 44
230 236 202 170 167 185 215 213 205 168 207 215 219 218 228 247 271 280 261 257 266 282 293 290 328 335 280 324 318 247 245 268 296 256 311 312 18 351 356 1 8 43 25 9 17
Height
1550 1548 1544 1541 1538 1535 1531 1528 1524 1520 1517 1515 1513 1511 1511 1511 1511 1511 1507 1511 1508 1504 1503 1502 1500 1497 1496 1496 1496 1495 1489 1476 1471 1469 1470 1475 1483 1480 1482 1482 1479 1479 1480 1479 1477
1552 1549 1545 1542 1538 1535 1531 1527 1523 1520 1517 1514 1513 1511 1512 1512 1514 1511 1513 1510 1507 1505 1505 1502 1500 1498 1496 1496 1496 1493 1483 1475 1479 1481 1480 1480 1485 1486 1485 1480 1477 1477 1478 1478 1478
1553 1549 1546 1542 1538 1535 1531 1527 1523 1520 1517 1514 1512 1511 1512 1513 1515 1516 1513 1511 1509 1507 1506 1505 1503 1501 1498 1498 1496 1491 1486 1481 1483 1486 1488 1488 1487 1488 1484 1479 1480 1478 1476 1478 1478
1554 1551 1546 1543 1539 1535 1530 1526 1522 1520 1518 1515 1514 1512 1513 1514 1515 1518 1514 1512 1509 1508 1507 1505 1503 1501 1499 1497 1498 1497 1490 1490 1490 1490 1490 1489 1488 1485 1484 1479 1480 1477 1477 1477 1478
1555 1551 1546 1542 1538 1534 1530 1526 1523 1520 1518 1517 1516 1516 1516 1519 1522 1519 1515 1512 1510 1508 1507 1506 1504 1503 1499 1498 1498 1494 1491 1491 1491 1490 1489 1487 1484 1481 1478 1479 1477 1476 1474 1474 1475
1554 1551 1546 1542 1538 1534 1530 1526 1524 1522 1520 1519 1518 1518 1519 1520 1521 1519 1516 1512 1509 1505 1505 1505 1504 1504 1502 1500 1500 1495 1494 1492 1489 1487 1486 1484 1478 1478 1472 1472 1471 1471 1470 1469 1471
1554 1550 1546 1542 1538 1534 1530 1526 1524 1523 1522 1520 1520 1519 1520 1526 1522 1519 1516 1512 1507 1505 1504 1504 1503 1504 1501 1498 1497 1497 1493 1487 1481 1480 1478 1481 1473 1468 1464 1465 1464 1464 1464 1464 1464
1555 1550 1545 1542 1538 1534 1530 1526 1525 1523 1522 1521 1520 1521 1524 1524 1523 1520 1515 1511 1508 1505 1503 1502 1501 1502 1501 1499 1495 1490 1486 1482 1474 1476 1477 1480 1462 1460 1461 1460 1460 1460 1458 1458 1458
1555 1550 1546 1541 1538 1534 1530 1527 1525 1523 1523 1522 1523 1523 1526 1525 1522 1520 1517 1510 1507 1506 1504 1502 1502 1500 1499 1493 1487 1478 1477 1475 1472 1473 1473 1473 1459 1457 1460 1460 1457 1455 1453 1453 1452
1555 1551 1546 1541 1537 1533 1529 1527 1526 1525 1525 1524 1525 1527 1527 1527 1522 1519 1516 1510 1508 1506 1505 1503 1501 1496 1491 1486 1487 1487 1485 1480 1475 1470 1467 1466 1456 1450 1451 1451 1448 1447 1447 1448 1447
1555 1550 1546 1541 1537 1533 1530 1527 1530 1531 1528 1532 1534 1532 1531 1528 1523 1521 1513 1509 1508 1504 1501 1500 1495 1489 1491 1492 1492 1493 1493 1488 1475 1461 1459 1455 1447 1444 1444 1443 1440 1439 1440 1441 1441
1555 1551 1546 1541 1537 1534 1531 1529 1529 1532 1535 1534 1534 1534 1532 1529 1527 1522 1515 1511 1508 1501 1499 1495 1490 1494 1496 1492 1489 1487 1486 1476 1458 1457 1460 1454 1444 1438 1438 1436 1433 1433 1433 1435 1435
1555 1551 1546 1540 1537 1534 1532 1531 1529 1531 1532 1536 1535 1534 1532 1530 1529 1526 1521 1515 1511 1503 1501 1497 1493 1497 1494 1488 1484 1483 1476 1464 1463 1461 1456 1448 1437 1437 1440 1436 1431 1427 1428 1430 1430
1555 1551 1545 1541 1539 1535 1533 1532 1530 1531 1528 1537 1536 1536 1535 1531 1529 1528 1524 1523 1514 1510 1504 1497 1499 1496 1493 1489 1487 1484 1466 1466 1466 1469 1458 1458 1439 1441 1439 1445 1441 1437 1425 1423 1425
1555 1552 1547 1541 1540 1538 1537 1531 1530 1532 1520 1538 1538 1537 1535 1534 1535 1527 1527 1522 1519 1517 1513 1497 1499 1498 1497 1493 1490 1480 1470 1465 1461 1463 1460 1450 1448 1446 1445 1445 1448 1441 1433 1429 1426
1554 1551 1548 1543 1539 1537 1533 1531 1531 1532 1529 1537 1541 1539 1536 1534 1535 1532 1529 1526 1522 1516 1508 1503 1501 1501 1502 1492 1480 1477 1466 1448 1445 1456 1448 1454 1448 1451 1459 1461 1452 1445 1437 1433 1430
1553 1550 1547 1544 1542 1536 1532 1532 1532 1528 1538 1540 1543 1541 1538 1538 1536 1534 1534 1536 1536 1527 1515 1503 1494 1495 1497 1488 1479 1481 1466 1446 1438 1437 1441 1446 1442 1468 1470 1467 1459 1453 1446 1437 1433
1552 1550 1548 1544 1540 1536 1533 1532 1528 1543 1544 1547 1546 1542 1538 1543 1538 1536 1532 1533 1539 1539 1529 1519 1499 1497 1497 1496 1496 1489 1482 1476 1466 1444 1436 1441 1456 1465 1473 1472 1464 1456 1452 1443 1440
1551 1549 1546 1545 1541 1537 1537 1538 1542 1551 1553 1550 1543 1539 1535 1541 1545 1540 1543 1541 1542 1546 1543 1531 1505 1500 1500 1497 1496 1489 1483 1487 1476 1447 1450 1441 1454 1469 1471 1472 1472 1465 1454 1453 1449
1548 1547 1545 1544 1542 1539 1540 1546 1547 1553 1556 1555 1548 1548 1542 1544 1546 1546 1545 1546 1545 1547 1548 1541 1532 1501 1499 1495 1496 1492 1490 1482 1473 1462 1447 1443 1455 1476 1474 1474 1473 1471 1466 1462 1459
1550 1547 1545 1544 1542 1543 1548 1548 1550 1555 1557 1558 1554 1552 1549 1553 1559 1554 1549 1545 1546 1545 1547 1544 1542 1508 1496 1501 1502 1497 1498 1494 1491 1481 1466 1453 1460 1490 1488 1487 1484 1482 1479 1472 1470
1549 1548 1545 1543 1546 1547 1548 1553 1553 1553 1556 1557 1557 1554 1553 1552 1556 1554 1551 1548 1547 1547 1545 1544 1542 1527 1501 1500 1505 1504 1503 1503 1496 1484 1477 1473 1472 1484 1492 1487 1490 1487 1485 1482 1477
1549 1548 1545 1543 1547 1548 1552 1553 1552 1553 1554 1556 1555 1554 1554 1553 1555 1548 1545 1547 1548 1547 1547 1546 1538 1524 1495 1503 1501 1507 1504 1506 1502 1501 1483 1477 1476 1485 1487 1486 1487 1488 1488 1487 1485
1549 1547 1546 1545 1547 1546 1548 1549 1550 1552 1553 1555 1554 1554 1554 1550 1550 1550 1544 1545 1547 1548 1548 1548 1540 1538 1518 1516 1516 1515 1512 1510 1508 1492 1495 1491 1490 1485 1493 1496 1492 1491 1491 1490 1490
1548 1546 1544 1546 1546 1546 1550 1550 1546 1549 1552 1553 1552 1551 1553 1555 1553 1551 1546 1546 1545 1548 1548 1548 1541 1531 1527 1520 1517 1514 1514 1510 1510 1500 1497 1496 1496 1493 1495 1499 1497 1493 1492 1491 1490
1545 1545 1545 1546 1546 1547 1549 1546 1543 1546 1549 1549 1551 1546 1548 1552 1547 1548 1547 1545 1545 1547 1549 1549 1535 1532 1521 1512 1514 1515 1510 1506 1507 1503 1496 1494 1492 1497 1497 1499 1504 1498 1494 1493 1494
1542 1543 1543 1545 1546 1547 1541 1538 1539 1543 1544 1546 1546 1547 1547 1546 1546 1546 1546 1545 1545 1548 1545 1547 1543 1534 1513 1511 1520 1507 1507 1508 1506 1505 1503 1492 1498 1498 1497 1497 1498 1501 1497 1493 1492